DW8052 Weather Reports


time (UTC)temp
C
wind
direction
speed
KPH
gust
KPH
rain 1hr
cm
rain 24hr
cm
rain mn
cm
humidity
%
barometer
mb
20260906030714 21 154 19.3 27.4 0.00 0.05 0.00 38 1016.8
20260906030214 21 147 20.9 32.2 0.00 0.05 0.00 37 1016.8
20260906025714 21 145 16.1 27.4 0.00 0.05 0.00 37 1016.9
20260906025214 21 159 20.9 32.2 0.00 0.05 0.00 36 1016.8
20260906024714 21 150 19.3 32.2 0.00 0.05 0.00 37 1016.9
20260906024214 21 145 22.5 33.8 0.00 0.05 0.00 36 1017.0
20260906023714 21 166 20.9 33.8 0.00 0.05 0.00 35 1016.9
20260906022714 21 158 20.9 33.8 0.00 0.05 0.00 35 1016.8
20260906022214 21 156 17.7 33.8 0.00 0.05 0.00 36 1016.8
20260906021714 22 161 16.1 32.2 0.00 0.05 0.00 36 1017.0
20260906021213 22 172 19.3 32.2 0.00 0.05 0.00 34 1016.9
20260906020713 22 157 22.5 32.2 0.00 0.05 0.00 34 1016.9
20260906020214 22 151 16.1 29.0 0.00 0.05 0.00 33 1016.8
20260906015714 22 151 9.7 33.8 0.00 0.05 0.00 34 1016.7
20260906014714 22 171 19.3 33.8 0.00 0.05 0.00 33 1016.8
20260906013713 21 186 27.4 37.0 0.00 0.05 0.00 32 1016.7
20260906013213 21 180 19.3 37.0 0.00 0.05 0.00 33 1016.7
20260906012713 22 182 22.5 41.8 0.00 0.05 0.00 33 1016.7
20260906011713 22 179 19.3 33.8 0.00 0.05 0.00 33 1016.8
20260906011213 21 198 16.1 37.0 0.00 0.05 0.00 33 1017.0
20260906010714 21 200 27.4 41.8 0.00 0.05 0.00 33 1016.8
20260906010214 21 215 20.9 33.8 0.00 0.05 0.00 32 1016.9
20260906005714 21 210 17.7 32.2 0.00 0.05 0.00 33 1017.1
20260906005213 21 192 20.9 37.0 0.00 0.05 0.00 33 1016.7
20260906004714 21 203 11.3 25.7 0.00 0.05 0.00 33 1016.7
20260906001714 20 245 19.3 32.2 0.00 0.05 0.00 37 1016.6
20260906001213 20 270 14.5 20.9 0.00 0.05 0.00 38 1016.6
20260905235713 19 267 19.3 32.2 0.00 0.05 0.00 38 1016.3
20260905234713 18 279 16.1 35.4 0.00 0.05 0.00 40 1016.3
20260905234213 18 276 19.3 29.0 0.00 0.05 0.00 39 1016.6
20260905233214 18 288 19.3 29.0 0.00 0.05 0.00 40 1016.3
20260905232713 18 281 14.5 27.4 0.00 0.05 0.00 41 1016.2
20260905232213 18 259 16.1 32.2 0.00 0.05 0.00 42 1016.2
20260905231714 17 269 22.5 33.8 0.00 0.05 0.00 42 1016.1
20260905231213 18 266 32.2 40.2 0.00 0.05 0.00 41 1016.0
20260905230714 17 259 20.9 35.4 0.00 0.05 0.00 43 1016.3
20260905230213 17 258 25.7 33.8 0.00 0.05 0.00 43 1016.0
20260905225213 17 270 25.7 33.8 0.00 0.05 0.00 43 1016.2
20260905224713 17 253 30.6 41.8 0.00 0.05 0.00 43 1016.2
20260905224214 17 280 25.7 37.0 0.00 0.05 0.00 44 1016.0
20260905223713 16 267 29.0 38.6 0.00 0.05 0.00 45 1015.9
20260905223213 16 268 33.8 48.3 0.00 0.05 0.00 45 1015.7
20260905222713 16 279 32.2 41.8 0.00 0.05 0.00 45 1015.6
20260905222213 16 270 35.4 46.7 0.00 0.05 0.00 45 1015.5
20260905221213 16 267 38.6 49.9 0.00 0.05 0.00 45 1015.4
20260905220713 16 256 30.6 46.7 0.00 0.05 0.00 46 1015.2
20260905220214 16 271 33.8 45.1 0.00 0.05 0.00 45 1015.3
20260905215713 16 270 29.0 45.1 0.00 0.05 0.00 46 1015.4
20260905215213 16 270 25.7 45.1 0.00 0.05 0.00 46 1015.5
20260905213713 16 268 25.7 41.8 0.00 0.05 0.00 46 1015.1
20260905213213 16 263 27.4 46.7 0.00 0.05 0.00 46 1014.9
20260905212713 16 270 20.9 37.0 0.00 0.05 0.00 47 1014.7
20260905212213 15 261 27.4 45.1 0.00 0.05 0.00 47 1014.8
20260905211213 15 266 19.3 40.2 0.00 0.05 0.00 48 1014.4
20260905210713 15 275 24.1 57.9 0.00 0.05 0.00 47 1014.3
20260905210213 15 270 41.8 61.2 0.00 0.05 0.00 47 1014.2
20260905205713 15 261 35.4 56.3 0.00 0.05 0.00 47 1014.2
20260905205213 15 267 35.4 53.1 0.00 0.05 0.00 48 1014.2
20260905204712 15 265 29.0 41.8 0.00 0.05 0.00 48 1013.9
20260905204213 15 263 29.0 40.2 0.00 0.05 0.00 49 1013.8
20260905203713 15 263 30.6 46.7 0.00 0.05 0.00 49 1013.8
20260905203214 15 259 29.0 41.8 0.00 0.05 0.00 50 1013.9
20260905202713 15 261 32.2 41.8 0.00 0.05 0.00 49 1013.4
20260905201713 15 264 30.6 38.6 0.00 0.05 0.00 50 1013.7
20260905201213 15 247 25.7 32.2 0.00 0.05 0.00 49 1013.7
20260905200213 15 219 20.9 32.2 0.00 0.05 0.00 48 1013.5
20260905195713 15 214 17.7 27.4 0.00 0.05 0.00 48 1013.6
20260905195213 15 239 19.3 32.2 0.00 0.05 0.00 49 1013.5
20260905194713 15 262 20.9 33.8 0.00 0.05 0.00 48 1013.3
20260905194213 15 249 14.5 29.0 0.00 0.05 0.00 47 1013.1
20260905193713 15 244 22.5 25.7 0.00 0.05 0.00 47 1013.1
20260905192713 15 207 6.4 19.3 0.00 0.05 0.00 47 1013.3
20260905192213 15 186 9.7 19.3 0.00 0.05 0.00 48 1013.3
20260905191713 15 201 16.1 27.4 0.00 0.05 0.00 48 1013.0
20260905191213 15 252 19.3 27.4 0.00 0.05 0.00 47 1012.9
20260905190713 15 276 16.1 41.8 0.00 0.05 0.00 47 1012.3
20260905190213 15 282 27.4 46.7 0.00 0.05 0.00 46 1012.3
20260905185713 15 276 29.0 45.1 0.00 0.05 0.00 46 1012.0
20260905185212 15 274 22.5 38.6 0.00 0.05 0.00 46 1012.5
20260905184713 15 276 22.5 38.6 0.00 0.05 0.00 46 1012.1
20260905183713 16 277 25.7 37.0 0.00 0.05 0.00 45 1011.8
20260905182713 16 261 20.9 35.4 0.00 0.05 0.00 45 1011.7
20260905182212 16 271 29.0 41.8 0.00 0.05 0.00 45 1011.9
20260905181212 16 270 27.4 46.7 0.00 0.05 0.00 44 1011.4
20260905180213 16 272 24.1 40.2 0.00 0.05 0.00 44 1010.9
20260905175713 16 259 29.0 45.1 0.00 0.05 0.00 43 1011.4
20260905174713 16 247 35.4 49.9 0.00 0.05 0.00 42 1011.1
20260905174213 16 248 30.6 46.7 0.00 0.05 0.00 42 1011.1
20260905173713 16 263 29.0 66.0 0.00 0.05 0.00 41 1011.0
20260905173213 16 274 40.2 69.2 0.00 0.05 0.00 41 1010.4
20260905172712 16 269 37.0 66.0 0.00 0.05 0.00 41 1009.9
20260905172212 16 280 37.0 61.2 0.00 0.05 0.00 42 1009.7
20260905171713 16 292 32.2 56.3 0.00 0.05 0.00 42 1009.6
20260905171212 17 280 32.2 53.1 0.00 0.05 0.00 42 1010.0
20260905170212 17 269 33.8 49.9 0.00 0.05 0.00 42 1010.3
20260905165713 17 267 27.4 41.8 0.00 0.05 0.00 42 1010.2
20260905165213 17 280 38.6 49.9 0.00 0.05 0.00 41 1009.9
20260905164712 17 279 29.0 49.9 0.00 0.05 0.00 41 1010.3
20260905164213 17 262 37.0 48.3 0.00 0.05 0.00 41 1010.6
20260905163713 17 277 35.4 46.7 0.00 0.05 0.00 41 1010.7
20260905163212 17 254 22.5 48.3 0.00 0.05 0.00 41 1010.8
20260905162213 18 254 14.5 27.4 0.00 0.05 0.00 42 1011.3
20260905161712 18 254 17.7 27.4 0.00 0.05 0.00 41 1011.1
20260905161212 18 273 16.1 27.4 0.00 0.05 0.00 40 1011.0
20260905160212 18 275 19.3 27.4 0.00 0.05 0.00 39 1010.8
20260905155713 18 272 25.7 35.4 0.00 0.05 0.00 38 1010.8
20260905155212 18 261 19.3 33.8 0.00 0.05 0.00 38 1010.9
20260905154712 18 272 25.7 32.2 0.00 0.05 0.00 38 1010.7
20260905153712 18 265 32.2 46.7 0.00 0.05 0.00 37 1010.9
20260905153212 18 259 33.8 46.7 0.00 0.05 0.00 37 1011.1
20260905152712 18 255 35.4 62.8 0.00 0.05 0.00 37 1011.0
20260905152213 18 262 48.3 72.4 0.00 0.05 0.00 37 1011.0
20260905151713 19 259 40.2 66.0 0.00 0.05 0.00 38 1010.8
20260905151212 19 253 38.6 56.3 0.00 0.05 0.00 39 1010.7
20260905150712 19 258 35.4 56.3 0.00 0.05 0.00 40 1010.6
20260905145712 19 263 38.6 53.1 0.00 0.05 0.00 43 1010.6
20260905145213 19 244 30.6 45.1 0.00 0.05 0.00 46 1010.4
20260905144712 19 242 29.0 37.0 0.00 0.05 0.00 47 1010.3
20260905144212 19 248 25.7 33.8 0.00 0.05 0.00 49 1010.2
20260905143713 20 252 22.5 33.8 0.00 0.05 0.00 48 1010.2
20260905143212 20 252 22.5 33.8 0.00 0.05 0.00 49 1010.0
20260905142713 20 258 19.3 27.4 0.00 0.05 0.00 49 1009.8
20260905142212 20 251 20.9 27.4 0.00 0.05 0.00 49 1009.7
20260905141712 20 261 20.9 27.4 0.00 0.05 0.00 49 1009.7
20260905141213 20 261 20.9 29.0 0.00 0.05 0.00 49 1009.5
20260905140713 20 262 27.4 37.0 0.00 0.05 0.00 49 1009.4
20260905140212 20 262 25.7 33.8 0.00 0.05 0.00 49 1009.3
20260905135712 20 262 27.4 37.0 0.00 0.05 0.05 49 1009.3
20260905135212 20 268 27.4 37.0 0.00 0.05 0.05 49 1009.1
20260905134212 20 259 32.2 41.8 0.00 0.05 0.05 50 1009.1
20260905133712 20 257 32.2 41.8 0.00 0.05 0.05 51 1009.0
20260905133213 20 256 29.0 41.8 0.00 0.05 0.05 52 1008.7
20260905132712 20 254 25.7 32.2 0.00 0.05 0.05 52 1008.8
20260905132212 20 253 22.5 29.0 0.00 0.05 0.05 53 1009.1
20260905131712 20 257 22.5 27.4 0.00 0.05 0.05 53 1008.9
20260905130712 20 259 19.3 25.7 0.00 0.05 0.05 53 1008.9
20260905130212 20 265 19.3 25.7 0.00 0.05 0.05 53 1008.8
20260905125712 20 266 20.9 27.4 0.00 0.05 0.05 53 1008.7
20260905124713 20 261 20.9 29.0 0.00 0.05 0.05 54 1008.8
20260905124212 20 262 16.1 24.1 0.00 0.05 0.05 55 1009.0
20260905123712 20 268 19.3 24.1 0.00 0.05 0.05 56 1008.9
20260905122712 20 250 17.7 27.4 0.00 0.05 0.05 58 1008.7
20260905122212 20 232 17.7 29.0 0.00 0.05 0.05 57 1008.9
20260905121712 20 222 8.0 14.5 0.00 0.05 0.05 56 1008.9
20260905121212 20 247 11.3 16.1 0.00 0.05 0.05 55 1008.5
20260905120713 20 245 9.7 12.9 0.00 0.05 0.05 55 1008.6
20260905120212 20 268 8.0 12.9 0.00 0.05 0.05 54 1008.4
20260905115712 21 267 8.0 11.3 0.00 0.05 0.05 53 1008.2
20260905115212 21 283 9.7 19.3 0.00 0.05 0.05 53 1008.2
20260905114712 21 304 14.5 20.9 0.00 0.05 0.05 53 1008.2
20260905113712 21 303 16.1 24.1 0.00 0.05 0.05 52 1008.1
20260905113212 21 303 19.3 24.1 0.00 0.05 0.05 53 1008.2
20260905112712 21 304 20.9 32.2 0.00 0.05 0.05 52 1008.3
20260905112212 21 304 22.5 25.7 0.00 0.05 0.05 53 1008.2
20260905111712 21 308 22.5 25.7 0.00 0.05 0.05 53 1008.1
20260905111212 21 304 17.7 29.0 0.00 0.05 0.05 53 1008.2
20260905110713 21 313 22.5 29.0 0.00 0.05 0.05 53 1008.3
20260905105712 21 317 20.9 27.4 0.00 0.05 0.05 52 1008.0
20260905105212 21 320 22.5 27.4 0.00 0.05 0.05 52 1008.0
20260905104712 21 319 24.1 32.2 0.00 0.05 0.05 52 1008.0
20260905102712 22 327 27.4 32.2 0.00 0.05 0.05 49 1008.1
20260905102212 22 310 25.7 32.2 0.00 0.05 0.05 49 1008.1
20260905101712 22 317 25.7 33.8 0.00 0.05 0.05 48 1008.0
20260905101212 22 314 25.7 35.4 0.00 0.05 0.05 48 1007.9
20260905100712 22 318 27.4 33.8 0.00 0.05 0.05 47 1007.8
20260905100212 22 310 24.1 32.2 0.00 0.05 0.05 47 1008.0
20260905095212 22 315 22.5 32.2 0.00 0.05 0.05 47 1007.7
20260905094712 22 308 20.9 33.8 0.00 0.05 0.05 47 1007.8
20260905094212 22 308 20.9 33.8 0.00 0.05 0.05 46 1007.8
20260905093712 22 310 22.5 32.2 0.00 0.05 0.05 46 1007.7
20260905092712 22 311 24.1 32.2 0.00 0.05 0.05 46 1007.7
20260905092212 22 305 22.5 32.2 0.00 0.05 0.05 46 1007.8
20260905090712 22 316 25.7 40.2 0.00 0.05 0.05 46 1007.9
20260905090211 22 309 27.4 37.0 0.00 0.05 0.05 46 1007.7
20260905085712 22 312 32.2 41.8 0.00 0.05 0.05 46 1007.8
20260905084212 21 320 27.4 41.8 0.00 0.05 0.05 52 1007.5
20260905083711 21 331 27.4 33.8 0.00 0.05 0.05 54 1007.6
20260905083212 21 331 25.7 37.0 0.00 0.05 0.05 55 1007.8
20260905082712 21 315 25.7 35.4 0.00 0.05 0.05 55 1008.1
20260905082212 21 320 32.2 49.9 0.00 0.05 0.05 56 1007.7
20260905081711 21 345 22.5 32.2 0.00 0.05 0.05 59 1008.2
20260905081211 21 334 20.9 29.0 0.00 0.05 0.05 60 1008.2
20260905080712 21 317 22.5 32.2 0.00 0.05 0.05 60 1008.5
20260905080211 21 311 25.7 29.0 0.00 0.05 0.05 60 1008.4
20260905075712 20 322 22.5 29.0 0.00 0.05 0.05 60 1008.4
20260905075212 20 316 19.3 25.7 0.00 0.05 0.05 61 1008.6
20260905074712 20 297 16.1 25.7 0.00 0.05 0.05 61 1008.6
20260905073711 21 329 25.7 35.4 0.00 0.05 0.05 59 1008.3
20260905073212 21 337 22.5 33.8 0.03 0.05 0.05 58 1008.1
20260905072212 21 300 20.9 35.4 0.05 0.05 0.05 59 1008.3
20260905071711 21 282 30.6 46.7 0.05 0.05 0.05 59 1009.0
20260905071212 21 274 32.2 45.1 0.05 0.05 0.05 60 1009.2
20260905070712 20 278 27.4 41.8 0.05 0.05 0.05 62 1009.5
20260905065712 20 278 25.7 32.2 0.05 0.05 0.05 62 1008.9
20260905064211 21 282 32.2 48.3 0.05 0.05 0.05 60 1008.9
20260905063711 21 287 25.7 53.1 0.05 0.05 0.05 58 1008.7
20260905063211 22 278 48.3 62.8 0.03 0.03 0.03 53 1009.5
20260905062712 23 270 57.9 78.9 0.00 0.00 0.00 46 1009.3
20260905061711 26 255 62.8 88.5 0.00 0.00 0.00 36 1008.7
20260905061211 26 249 72.4 98.2 0.00 0.00 0.00 33 1008.4
20260905060711 27 237 59.5 77.2 0.00 0.00 0.00 32 1007.9
20260905055711 28 276 35.4 59.5 0.00 0.00 0.00 27 1007.2
20260905055211 28 286 33.8 59.5 0.00 0.00 0.00 27 1007.1
20260905054711 29 274 32.2 51.5 0.00 0.00 0.00 27 1006.6
20260905054211 29 277 45.1 59.5 0.00 0.00 0.00 27 1006.4
20260905053711 29 275 56.3 78.9 0.00 0.00 0.00 26 1006.2
20260905053211 29 280 41.8 69.2 0.00 0.00 0.00 26 1005.7
20260905052211 29 270 54.7 77.2 0.00 0.00 0.00 26 1005.6
20260905051711 29 271 53.1 77.2 0.00 0.00 0.00 26 1005.4
20260905051211 29 278 46.7 74.0 0.00 0.00 0.00 25 1005.6
20260905050711 29 271 46.7 77.2 0.00 0.00 0.00 25 1005.5
20260905050211 30 263 56.3 75.6 0.00 0.00 0.00 25 1005.3
20260905045711 30 275 41.8 74.0 0.00 0.00 0.00 24 1005.4
20260905045211 30 274 48.3 66.0 0.00 0.00 0.00 24 1005.4
20260905044711 30 269 37.0 62.8 0.00 0.00 0.00 24 1005.3
20260905044212 30 261 33.8 51.5 0.00 0.00 0.00 24 1005.2
20260905043711 30 270 37.0 72.4 0.00 0.00 0.00 22 1005.2
20260905042711 30 275 22.5 33.8 0.00 0.00 0.00 27 1005.5
20260905042211 30 301 27.4 35.4 0.00 0.00 0.00 26 1005.2
20260905041711 30 318 25.7 41.8 0.00 0.00 0.00 27 1005.1
20260905041211 30 328 29.0 41.8 0.00 0.00 0.00 27 1005.0
20260905040211 29 335 27.4 38.6 0.00 0.00 0.00 27 1005.3
20260905035711 29 329 25.7 40.2 0.00 0.00 0.00 28 1005.2
20260905035210 28 340 24.1 38.6 0.00 0.00 0.00 27 1005.5
20260905034711 28 338 32.2 48.3 0.00 0.00 0.00 27 1005.4
20260905034211 28 346 25.7 46.7 0.00 0.00 0.00 27 1005.6
20260905033711 28 334 20.9 41.8 0.00 0.00 0.00 28 1005.7
20260905033210 28 343 22.5 40.2 0.00 0.00 0.00 28 1005.8
20260905032211 28 354 30.6 46.7 0.00 0.00 0.00 28 1006.2